EW0362 Weather Reports


Display with metric or nautical units.
time (UTC)temp
F
wind
direction
speed
MPH
gust
MPH
rain 1hr
in
rain 24hr
in
rain mn
in
humidity
%
barometer
mb
20260503201205 55 293 2.0 7.0 0.00 0.04 0.01 44 1005.6
20260503200204 54 277 5.0 10.0 0.00 0.04 0.01 43 1005.6
20260503195705 54 352 2.0 12.0 0.00 0.04 0.01 46 1005.7
20260503195204 54 274 3.0 8.0 0.00 0.04 0.01 46 1005.6
20260503194204 54 296 3.0 6.0 0.00 0.04 0.01 47 1005.6
20260503193705 54 329 4.0 9.0 0.00 0.04 0.01 46 1005.6
20260503192704 54 330 4.0 12.0 0.00 0.04 0.01 47 1005.7
20260503191704 54 324 2.0 8.0 0.00 0.04 0.01 48 1005.8
20260503190704 54 283 2.0 7.0 0.00 0.04 0.01 50 1005.7
20260503190205 54 274 3.0 6.0 0.00 0.04 0.01 49 1005.7
20260503185704 54 293 2.0 9.0 0.00 0.04 0.01 48 1005.7
20260503184705 55 345 5.0 9.0 0.00 0.04 0.01 47 1005.7
20260503184204 55 277 4.0 8.0 0.00 0.04 0.01 50 1005.7
20260503181204 53 285 1.0 9.0 0.00 0.04 0.01 52 1005.8
20260503180204 53 306 5.0 12.0 0.00 0.04 0.01 50 1006.0
20260503175206 53 273 4.0 9.0 0.00 0.04 0.01 52 1006.0
20260503174704 53 268 6.0 14.0 0.00 0.04 0.01 53 1005.9
20260503174204 52 22 2.0 8.0 0.00 0.04 0.01 55 1005.9
20260503173705 52 268 7.0 13.0 0.00 0.04 0.01 54 1005.9
20260503172705 52 355 5.0 12.0 0.00 0.04 0.01 52 1006.0
20260503172204 52 271 4.0 12.0 0.00 0.04 0.01 57 1005.9
20260503171704 52 4 6.0 14.0 0.00 0.04 0.01 56 1005.8
20260503170205 52 322 6.0 12.0 0.00 0.04 0.01 57 1005.8
20260503160205 50 301 5.0 10.0 0.00 0.04 0.01 65 1006.0
20260503120204 43 0 1.0 3.0 0.00 0.06 0.00 89 1007.0
20260503110204 42 295 1.0 3.0 0.00 0.10 0.00 90 1006.9
20260503090204 42 307 0.0 3.0 0.00 0.11 0.00 92 1007.3
20260503080204 42 58 0.0 2.0 0.00 0.11 0.00 93 1008.0
20260503072204 43 51 0.0 0.0 0.00 0.11 0.00 94 1008.3
20260503071704 43 51 0.0 0.0 0.00 0.11 0.00 94 1008.4
20260503070704 43 51 0.0 0.0 0.00 0.11 0.00 95 1008.4
20260503060203 43 51 0.0 0.0 0.00 0.11 0.00 94 1009.4
20260503054204 44 51 0.0 0.0 0.00 0.11 0.00 93 1009.2
20260503053703 44 51 0.0 0.0 0.00 0.11 0.00 93 1009.4
20260503052703 44 51 0.0 0.0 0.00 0.11 0.00 93 1009.6
20260503052204 44 51 0.0 0.0 0.00 0.11 0.00 93 1009.5
20260503044703 45 330 0.0 0.0 0.00 0.11 0.00 93 1010.0
20260503044204 45 330 0.0 1.0 0.00 0.11 0.00 93 1010.2
20260503043204 46 43 0.0 3.0 0.00 0.11 0.00 93 1010.2
20260503042704 46 11 2.0 3.0 0.00 0.11 0.00 95 1010.2
20260503042204 46 17 1.0 3.0 0.00 0.11 0.00 95 1010.3
20260503040704 46 350 0.0 0.0 0.00 0.11 0.00 95 1010.3
20260503040204 46 350 0.0 0.0 0.00 0.11 0.00 95 1010.4
20260503035203 46 350 0.0 0.0 0.00 0.11 0.11 95 1010.3
20260503034704 47 350 0.0 0.0 0.00 0.11 0.11 95 1010.3
20260503034203 47 350 0.0 0.0 0.00 0.11 0.11 95 1010.4
20260503032704 47 350 0.0 0.0 0.00 0.11 0.11 95 1010.4
20260503032204 47 350 0.0 0.0 0.00 0.11 0.11 95 1010.3
20260503031704 47 350 0.0 0.0 0.00 0.11 0.11 95 1010.3
20260503031204 47 350 0.0 0.0 0.00 0.11 0.11 95 1010.3
20260503030704 47 350 0.0 1.0 0.00 0.11 0.11 95 1010.3
20260503025704 47 350 0.0 1.0 0.00 0.11 0.11 95 1010.2
20260503024703 47 350 0.0 0.0 0.00 0.11 0.11 95 1010.4
20260503023204 47 350 0.0 0.0 0.00 0.11 0.11 94 1010.4
20260503022704 47 350 0.0 0.0 0.00 0.11 0.11 94 1010.5
20260503022204 47 350 0.0 0.0 0.00 0.11 0.11 94 1010.5
20260503013703 48 350 0.0 0.0 0.00 0.11 0.11 94 1010.5
20260503005203 49 350 0.0 1.0 0.00 0.11 0.11 94 1010.4
20260503004704 49 350 0.0 1.0 0.00 0.11 0.11 94 1010.4
20260503004205 49 350 0.0 0.0 0.00 0.11 0.11 94 1010.3
20260503003706 49 350 0.0 1.0 0.00 0.11 0.11 94 1010.3
20260503002705 50 350 0.0 0.0 0.00 0.11 0.11 94 1010.5
20260503001705 50 350 0.0 0.0 0.00 0.11 0.11 94 1010.6
20260503000206 50 350 0.0 0.0 0.00 0.11 0.11 94 1010.4
20260502234705 50 350 0.0 1.0 0.00 0.11 0.11 94 1010.2
20260502234206 50 350 0.0 0.0 0.00 0.11 0.11 94 1010.3
20260502232705 50 349 0.0 1.0 0.00 0.11 0.11 94 1010.2
20260502232206 50 355 0.0 0.0 0.00 0.11 0.11 94 1010.2
20260502231705 50 355 0.0 0.0 0.00 0.11 0.11 94 1010.2
20260502230706 50 355 0.0 0.0 0.00 0.11 0.11 94 1010.0
20260502230206 50 355 0.0 0.0 0.00 0.11 0.11 94 1009.9
20260502224706 50 355 0.0 0.0 0.01 0.11 0.11 93 1009.6
20260502224205 50 355 0.0 0.0 0.01 0.11 0.11 93 1009.6
20260502222706 50 355 0.0 0.0 0.02 0.11 0.11 93 1009.5
20260502221706 50 355 0.0 0.0 0.03 0.11 0.11 92 1009.6
20260502220705 50 355 0.0 0.0 0.03 0.11 0.11 92 1009.7
20260502220206 50 355 0.0 0.0 0.03 0.11 0.11 92 1009.7
20260502215206 51 355 0.0 0.0 0.02 0.10 0.10 92 1009.8
20260502214205 51 355 0.0 0.0 0.02 0.10 0.10 91 1009.9
20260502212706 51 355 0.0 0.0 0.01 0.09 0.09 90 1009.8
20260502212206 51 355 0.0 0.0 0.01 0.09 0.09 90 1009.8
20260502211206 51 355 0.0 0.0 0.00 0.08 0.08 89 1009.7
20260502210206 51 355 0.0 0.0 0.00 0.08 0.08 88 1009.6
20260502205705 51 355 0.0 0.0 0.00 0.08 0.08 88 1009.6
20260502204705 52 355 0.0 0.0 0.00 0.08 0.08 87 1009.6
20260502204205 52 355 0.0 1.0 0.00 0.08 0.08 87 1009.7
20260502203705 52 351 0.0 0.0 0.00 0.08 0.08 86 1009.7